Retour au catalogue

FENGYUN 1C DEB

ActifPO
NORAD 38157·DEBRIS·🇨🇳 China

Lancé May 10, 1999 depuis Taiyuan Satellite Launch Center

Loading…

Prochains Passages (prochaines 24 heures)

TLE

FraisSource: Space-Track

Époque: Sep 14, 2026, 01:43 UTC

1 38157U 99025ERE 26257.07160705  .00001875  00000-0  58771-3 0  9999
2 38157  99.6585 195.5996 0271047  60.2446 302.5400 14.23027901801625

Suivez FENGYUN 1C DEB en temps réel avec AllMySat

Download on the App Store